TimeEDT,TemperatureF,Dew PointF,Humidity,Sea Level PressureIn,VisibilityMPH,Wind Direction,Wind SpeedMPH,Gust SpeedMPH,PrecipitationIn,Events,Conditions,WindDirDegrees,DateUTC
12:54 AM,66.9,66.0,97,29.71,-9999.0,Calm,Calm,-,N/A,,Unknown,0,2013-09-13 04:54:00
1:54 AM,66.9,64.9,93,29.69,-9999.0,Calm,Calm,-,0.02,,Unknown,0,2013-09-13 05:54:00
2:54 AM,66.0,64.9,96,29.66,-9999.0,Calm,Calm,-,N/A,,Unknown,0,2013-09-13 06:54:00
3:54 AM,66.9,64.9,93,29.66,-9999.0,Calm,Calm,-,N/A,,Unknown,0,2013-09-13 07:54:00
4:54 AM,66.0,64.9,96,29.67,-9999.0,Calm,Calm,-,N/A,,Unknown,0,2013-09-13 08:54:00
5:54 AM,64.9,61.0,87,29.68,-9999.0,North,3.5,-,N/A,,Unknown,360,2013-09-13 09:54:00
6:54 AM,63.0,61.0,93,29.68,-9999.0,Calm,Calm,-,N/A,,Unknown,0,2013-09-13 10:54:00
7:54 AM,64.0,60.1,87,29.69,-9999.0,Calm,Calm,-,N/A,,Unknown,0,2013-09-13 11:54:00
8:54 AM,66.9,59.0,76,29.71,-9999.0,NNW,3.5,-,N/A,,Unknown,330,2013-09-13 12:54:00
9:54 AM,66.0,57.9,75,29.71,-9999.0,Variable,3.5,-,N/A,,Unknown,0,2013-09-13 13:54:00
10:54 AM,70.0,57.9,65,29.70,-9999.0,Calm,Calm,-,N/A,,Unknown,0,2013-09-13 14:54:00
11:54 AM,69.1,57.0,65,29.72,-9999.0,NNW,10.4,-,N/A,,Unknown,340,2013-09-13 15:54:00
12:54 PM,73.0,57.9,59,29.70,-9999.0,Variable,4.6,-,N/A,,Unknown,0,2013-09-13 16:54:00
1:54 PM,66.9,57.9,73,29.70,-9999.0,NNW,3.5,-,N/A,,Unknown,330,2013-09-13 17:54:00
2:54 PM,70.0,53.1,55,29.70,-9999.0,North,9.2,-,N/A,,Unknown,360,2013-09-13 18:54:00
3:54 PM,70.0,52.0,53,29.72,-9999.0,North,12.7,19.6,N/A,,Unknown,10,2013-09-13 19:54:00
4:54 PM,66.9,52.0,59,29.75,-9999.0,Variable,4.6,-,N/A,,Unknown,0,2013-09-13 20:54:00
5:54 PM,66.0,51.1,59,29.77,-9999.0,North,5.8,-,N/A,,Unknown,360,2013-09-13 21:54:00
6:54 PM,63.0,50.0,63,29.78,-9999.0,North,8.1,-,N/A,,Unknown,350,2013-09-13 22:54:00
7:54 PM,61.0,50.0,67,29.82,-9999.0,North,9.2,-,N/A,,Unknown,10,2013-09-13 23:54:00
8:54 PM,59.0,48.0,67,29.87,-9999.0,North,6.9,-,N/A,,Unknown,350,2013-09-14 00:54:00
9:54 PM,57.0,48.0,72,29.88,-9999.0,Variable,5.8,-,N/A,,Unknown,0,2013-09-14 01:54:00
10:54 PM,57.0,46.9,69,29.88,-9999.0,NNW,6.9,-,N/A,,Unknown,330,2013-09-14 02:54:00
11:54 PM,55.0,46.9,74,29.88,-9999.0,North,8.1,-,N/A,,Unknown,360,2013-09-14 03:54:00